SwissCube

operational
NORAD ID: 35932 Int'l Des: 2009-051 Owner: EPFL Country: CH
LEOCIRCULARRETROGRADESSO

About SwissCube

Description loading...

Live Position

Loading 3D Globe...

Upcoming Passes

Altitude History

Altitude vs Time

uPlot chart will show altitude changes over time

Two-Line Element Set

1 35932U 09051B 26061.29252750 .00001529 00000-0 31312-3 0 9994
2 35932 98.4107 327.3041 0006568 174.8848 185.2421 14.62234833873533
Epoch: Mar 2, 2026 • Age: 30 hours

Current Status

Altitude 715.1 km
Velocity 7.50 km/s
Sub-Earth Point -78.45°S, 128.71°E
Launch Date Sep 23, 2009
Age 16.4 years
Type other

Technical Details

Classification Payload
Mass 1.00 kg
Dry Mass 1.00 kg
Total Mass 1.00 kg
Length 0.10 m
Diameter 0.10 m
Span 0.10 m
Shape Box
Manufacturer EPFL
Bus Type Cubesat 1U
Phase Status In Orbit
Owner/State EPFL/CH

Large Constellations

Loading constellations...